Tracking 33199 objects as of 16-Feb-2026
HD Live streaming from Space Station
objects crossing your sky now

CZ-6A DEB

Track CZ-6A DEB now!
10-day predictions


NORAD ID: 55867
Int'l Code: 2022-151ZP
Perigee: 520.6 km
Apogee: 567.1 km
Inclination: 98.6 °
Period: 95.4 minutes
Semi major axis: 6914 km
RCS: Unknown
Launch date: November 11, 2022
Source: People's Republic of China (PRC)
Launch site: Taiyaun Space Center, China (TSC)

Note: This is SATELLITE DEBRIS
Your satellite tracking list
Your tracking list is empty




NASA's NSSDC Master Catalog

Two Line Element Set (TLE):
1 55867U 22151ZP  26047.15276219  .00121627  00000-0  73094-2 0  9998
2 55867  98.6222 119.3353 0033589 264.1841  95.5556 15.09836032161236
Source of the keplerian elements: AFSPC